View from above orbital plane
|
View from above satellite
|
Ground track
|
The orbit data is extracted from the following two-line orbital elements,
1 24298U 96051B 21061.36227346 -.00000160 00000-0 -60165-4 0 9990
2 24298 70.8344 86.7987 0016966 320.8546 39.1345 14.12464603263034
Epoch (UTC): | 02 March 2021 08:41:40 |
Eccentricity: | 0.0016966 |
inclination: | 70.8344° |
perigee height: | 838 km |
apogee height: | 863 km |
right ascension of ascending node: | 86.7987° |
argument of perigee: | 320.8546° |
revolutions per day: | 14.12464603 |
mean anomaly at epoch: | 39.1345° |
orbit number at epoch: | 26303 |
The dashed part of the orbit path shows where the satellite is in the earth's shadow,
|
|